Renton, WA
on Saturday, January 26, 2013

Saturday
Previous Day Next Day
Daily Summary
 ActualAverage (KSEA)Record (KSEA)
Temperature
Mean Temperature °F 43°F  
Max Temperature 48°F 48°F 58°F (2003)
Min Temperature 39°F 37°F 9°F (1957)
Degree Days
Heating Degree Days 22 22  
Month to date heating degree days 600  
Since 1 July heating degree days 2538  
Cooling Degree Days 0 0  
Month to date cooling degree days 0  
Year to date cooling degree days 0  
Moisture
Dew Point 38°F   
Average Humidity 83    
Maximum Humidity 100    
Minimum Humidity 66    
Precipitation
Precipitation 0.06 in 0.16 in 1.03 in (1950)
Month to date precipitation 4.78  
Year to date precipitation 4.78  
Snow
Snow 0.00 in in 10.00 in (1950)
Month to date snowfall  
Since 1 July snowfall  
Snow Depth in   
Wind
Wind Speed 5 mph   
Max Wind Speed 15 mph   
Max Gust Speed 22 mph   
Visibility 9 miles   
Events Rain   

Key: T is trace of precipitation, MM is missing value
Source: NWS Daily Summary
Time(PST)TemperatureDew PointHumidity Pressure Visibility Wind DirectionWind SpeedGust SpeedPrecipitationEvents Conditions
12:53 AM 41.0°F 39.9°F 96% 29.94 in 8.0 miles SE 3.5 mph - N/A   Overcast
1:20 AM 41.0°F 39.2°F 93% 29.92 in 8.0 miles SSE 3.5 mph - N/A   Overcast
1:53 AM 39.9°F 39.0°F 97% 29.93 in 8.0 miles SSE 3.5 mph - N/A   Partly Cloudy
2:53 AM 39.9°F 39.0°F 97% 29.92 in 10.0 miles South 4.6 mph - N/A   Mostly Cloudy
3:53 AM 39.9°F 37.9°F 93% 29.91 in 10.0 miles Variable 4.6 mph - N/A   Mostly Cloudy
4:53 AM 39.0°F 37.9°F 96% 29.91 in 4.0 miles Calm Calm - 0.03 in Rain Light Rain
5:53 AM 39.9°F 37.9°F 93% 29.91 in 10.0 miles Calm Calm - 0.01 in   Overcast
6:53 AM 39.9°F 39.0°F 97% 29.91 in 9.0 miles Calm Calm - 0.00 in   Overcast
7:53 AM 39.9°F 39.0°F 97% 29.92 in 10.0 miles ESE 3.5 mph - N/A   Overcast
8:30 AM 39.2°F 39.2°F 100% 29.91 in 7.0 miles Calm Calm - 0.01 in Rain Light Rain
8:53 AM 39.9°F 39.0°F 97% 29.93 in 6.0 miles SE 4.6 mph - 0.01 in Rain Light Rain
9:53 AM 44.1°F 37.9°F 79% 29.94 in 10.0 miles SSE 8.1 mph - 0.01 in   Overcast
10:53 AM 45.0°F 37.9°F 76% 29.96 in 10.0 miles SSE 15.0 mph 19.6 mph N/A   Overcast
11:53 AM 46.9°F 37.9°F 71% 29.95 in 10.0 miles South 8.1 mph 21.9 mph N/A   Overcast
12:53 PM 46.9°F 37.0°F 68% 29.94 in 10.0 miles South 9.2 mph 18.4 mph N/A   Overcast
1:53 PM 48.0°F 37.9°F 68% 29.94 in 10.0 miles South 15.0 mph 21.9 mph N/A   Mostly Cloudy
2:38 PM 46.4°F 37.4°F 71% 29.93 in 10.0 miles SSW 6.9 mph - N/A   Overcast
2:53 PM 48.0°F 37.0°F 66% 29.95 in 10.0 miles SSW 8.1 mph 18.4 mph N/A   Overcast
3:37 PM 48.2°F 37.4°F 66% 29.94 in 10.0 miles South 6.9 mph - N/A   Overcast
3:49 PM 46.4°F 37.4°F 71% 29.94 in 10.0 miles SSW 9.2 mph 16.1 mph N/A   Overcast
3:53 PM 46.9°F 37.0°F 68% 29.96 in 10.0 miles South 6.9 mph - N/A   Overcast
4:53 PM 46.0°F 37.0°F 71% 29.97 in 10.0 miles South 6.9 mph - N/A   Overcast
5:53 PM 45.0°F 37.0°F 74% 29.98 in 10.0 miles South 8.1 mph - N/A   Overcast
6:53 PM 43.0°F 37.9°F 82% 30.00 in 10.0 miles South 6.9 mph - N/A   Overcast
7:53 PM 43.0°F 37.9°F 82% 30.01 in 10.0 miles SSE 5.8 mph - 0.00 in   Overcast
8:53 PM 43.0°F 37.9°F 82% 30.03 in 10.0 miles SSE 4.6 mph - N/A   Overcast
9:53 PM 42.1°F 37.9°F 85% 30.04 in 10.0 miles SSE 5.8 mph - N/A   Overcast
10:53 PM 43.0°F 37.9°F 82% 30.05 in 10.0 miles SSE 4.6 mph - N/A   Overcast
11:53 PM 43.0°F 37.0°F 80% 30.06 in 10.0 miles SE 5.8 mph - N/A   Overcast
Moon Phase
Jan. 26 Jan. 26 Feb. 03 Feb. 10 Feb. 17
Sunrise:07:41 AM (PST) Moon Rise:05:05 PM (PST)
Sunset:05:01 PM (PST) Moon Set:07:00 AM (PST)

Copyright © 2014 The Weather Underground, Inc.